Location: Nijmegen RU
(51.8233°N, 354.1314°E)
Time: 04:30:25
(UTC+01:00)

Envisat - Pass Details

Date: 23 February 2019
Orbit: 764 x 766 km, 98.2° (Epoch: 18 March)

Event Time Altitude Azimuth Distance (km) Brightness Sun altitude
Rises 19:41:11 0° 160° (SSE) 3,223 6.1 -8.3°
Reaches altitude 10° 19:43:29 10° 160° (SSE) 2,301 5.3 -8.7°
Maximum altitude 19:48:33 82° 73° (ENE) 782 3.0 -9.4°
Drops below altitude 10° 19:53:40 10° 347° (NNW) 2,316 5.6 -10.2°
Sets 19:55:59 0° 347° (NNW) 3,247 6.4 -10.6°
